When you browse on this site, cookies collect data to enhance your experience and personalize the content and advertising you see.
Visit our Privacy Policy to learn more. By continuing to use the site, you agree to this use of cookies and data.

Stündliche Wetter Suárez

Heute, 4 August, Dienstag

Zeit Temperatur Niederschläge Wind Luftdruck Luftfeuchtigkeit
00:00 +21°C° 0 mm 1 m/S 667 mmHg 87%
01:00 +20°C° 0 mm 1 m/S 666 mmHg 86%
02:00 +20°C° 0 mm 1 m/S 666 mmHg 85%
03:00 +20°C° 0 mm 1 m/S 666 mmHg 84%
04:00 +18°C° 0 mm 0 m/S 666 mmHg 82%
05:00 +20°C° 0 mm 1 m/S 666 mmHg 81%
06:00 +20°C° 0 mm 1 m/S 666 mmHg 80%
07:00 +20°C° 0 mm 1 m/S 666 mmHg 79%
08:00 +23°C° 0 mm 1 m/S 667 mmHg 68%
09:00 +26°C° 0 mm 1 m/S 668 mmHg 58%
10:00 +29°C° 0 mm 1 m/S 669 mmHg 47%
11:00 +30°C° 0 mm 1 m/S 669 mmHg 45%
12:00 +31°C° 0 mm 1 m/S 668 mmHg 44%
13:00 +32°C° 0 mm 1 m/S 668 mmHg 42%
14:00 +30°C° 0.3 mm 1 m/S 667 mmHg 51%
15:00 +29°C° 0.3 mm 1 m/S 666 mmHg 59%
16:00 +28°C° 0.3 mm 2 m/S 665 mmHg 67%
17:00 +26°C° 0.3 mm 1 m/S 665 mmHg 75%
18:00 +25°C° 0.3 mm 1 m/S 666 mmHg 83%
19:00 +23°C° 0.3 mm 1 m/S 666 mmHg 90%
20:00 +23°C° 0.1 mm 1 m/S 666 mmHg 91%
21:00 +22°C° 0.1 mm 1 m/S 666 mmHg 91%
22:00 +22°C° 0.1 mm 1 m/S 667 mmHg 92%
23:00 +21°C° 0.1 mm 1 m/S 667 mmHg 91%

Morgen, 5 August, Mittwoch

Zeit Temperatur Niederschläge Wind Luftdruck Luftfeuchtigkeit
00:00 +21°C° 0.1 mm 1 m/S 666 mmHg 91%
01:00 +21°C° 0.1 mm 1 m/S 666 mmHg 90%
02:00 +20°C° 0 mm 1 m/S 666 mmHg 90%
03:00 +20°C° 0 mm 1 m/S 665 mmHg 89%
04:00 +20°C° 0 mm 1 m/S 665 mmHg 88%
05:00 +18°C° 0 mm 0 m/S 665 mmHg 87%
06:00 +18°C° 0 mm 0 m/S 665 mmHg 86%
07:00 +19°C° 0 mm 0 m/S 666 mmHg 84%
08:00 +21°C° 0 mm 0 m/S 667 mmHg 73%
09:00 +26°C° 0 mm 1 m/S 667 mmHg 62%
10:00 +29°C° 0 mm 1 m/S 668 mmHg 52%
11:00 +29°C° 0.1 mm 1 m/S 668 mmHg 53%
12:00 +29°C° 0.1 mm 1 m/S 667 mmHg 54%
13:00 +29°C° 0.1 mm 1 m/S 667 mmHg 56%
14:00 +28°C° 0.4 mm 1 m/S 666 mmHg 62%
15:00 +27°C° 0.4 mm 1 m/S 666 mmHg 68%
16:00 +26°C° 0.4 mm 1 m/S 665 mmHg 74%
17:00 +25°C° 0.4 mm 1 m/S 665 mmHg 80%
18:00 +24°C° 0.4 mm 1 m/S 665 mmHg 86%
19:00 +22°C° 0.4 mm 1 m/S 665 mmHg 92%
20:00 +22°C° 0.2 mm 1 m/S 666 mmHg 92%
21:00 +21°C° 0.2 mm 1 m/S 666 mmHg 92%
22:00 +21°C° 0.2 mm 1 m/S 666 mmHg 92%
23:00 +21°C° 0 mm 1 m/S 666 mmHg 92%

übermorgen, 6 August, Donnerstag

Zeit Temperatur Niederschläge Wind Luftdruck Luftfeuchtigkeit
00:00 +20°C° 0 mm 1 m/S 666 mmHg 92%
01:00 +20°C° 0 mm 1 m/S 665 mmHg 91%
02:00 +20°C° 0 mm 1 m/S 665 mmHg 91%
03:00 +18°C° 0 mm 0 m/S 665 mmHg 90%
04:00 +17°C° 0 mm 0 m/S 664 mmHg 89%
05:00 +18°C° 0 mm 0 m/S 665 mmHg 88%
06:00 +18°C° 0 mm 0 m/S 665 mmHg 86%
07:00 +18°C° 0 mm 0 m/S 665 mmHg 84%
08:00 +21°C° 0 mm 0 m/S 666 mmHg 73%
09:00 +26°C° 0 mm 1 m/S 667 mmHg 62%
10:00 +29°C° 0 mm 1 m/S 668 mmHg 51%
11:00 +29°C° 0.1 mm 1 m/S 668 mmHg 50%
12:00 +30°C° 0.1 mm 1 m/S 667 mmHg 50%
13:00 +30°C° 0.1 mm 1 m/S 667 mmHg 50%
14:00 +29°C° 0.3 mm 1 m/S 666 mmHg 56%
15:00 +28°C° 0.3 mm 1 m/S 666 mmHg 62%
16:00 +27°C° 0.3 mm 2 m/S 665 mmHg 68%
17:00 +26°C° 0.2 mm 1 m/S 665 mmHg 76%
18:00 +24°C° 0.2 mm 1 m/S 665 mmHg 83%
19:00 +22°C° 0.2 mm 1 m/S 665 mmHg 91%
20:00 +22°C° 0.1 mm 1 m/S 665 mmHg 90%
21:00 +22°C° 0.1 mm 1 m/S 666 mmHg 90%
22:00 +21°C° 0.1 mm 1 m/S 666 mmHg 89%
23:00 +21°C° 0.1 mm 1 m/S 666 mmHg 89%

7 August, Freitag

Zeit Temperatur Niederschläge Wind Luftdruck Luftfeuchtigkeit
00:00 +20°C° 0.1 mm 1 m/S 666 mmHg 89%
01:00 +18°C° 0.1 mm 0 m/S 665 mmHg 89%
02:00 +18°C° 0 mm 0 m/S 665 mmHg 88%
03:00 +18°C° 0 mm 0 m/S 665 mmHg 88%
04:00 +17°C° 0 mm 0 m/S 664 mmHg 87%
05:00 +18°C° 0 mm 0 m/S 665 mmHg 86%
06:00 +20°C° 0 mm 1 m/S 665 mmHg 84%
07:00 +20°C° 0 mm 1 m/S 665 mmHg 83%
08:00 +23°C° 0 mm 1 m/S 666 mmHg 72%
09:00 +26°C° 0 mm 1 m/S 667 mmHg 61%
10:00 +29°C° 0 mm 1 m/S 668 mmHg 50%
11:00 +30°C° 0.1 mm 1 m/S 668 mmHg 48%
12:00 +30°C° 0.1 mm 1 m/S 668 mmHg 47%
13:00 +31°C° 0.1 mm 1 m/S 667 mmHg 45%
14:00 +30°C° 0.2 mm 2 m/S 667 mmHg 50%
15:00 +29°C° 0.2 mm 2 m/S 666 mmHg 55%
16:00 +28°C° 0.2 mm 2 m/S 665 mmHg 61%
17:00 +26°C° 0.1 mm 1 m/S 665 mmHg 69%
18:00 +24°C° 0.1 mm 1 m/S 665 mmHg 78%
19:00 +23°C° 0.1 mm 1 m/S 665 mmHg 87%
20:00 +22°C° 0.1 mm 1 m/S 666 mmHg 87%
21:00 +22°C° 0.1 mm 1 m/S 666 mmHg 87%
22:00 +22°C° 0.1 mm 1 m/S 666 mmHg 87%
23:00 +21°C° 0 mm 1 m/S 666 mmHg 88%

8 August, Samstag

Zeit Temperatur Niederschläge Wind Luftdruck Luftfeuchtigkeit
00:00 +21°C° 0 mm 1 m/S 666 mmHg 88%
01:00 +19°C° 0 mm 0 m/S 666 mmHg 88%
02:00 +19°C° 0 mm 0 m/S 665 mmHg 89%
03:00 +18°C° 0 mm 0 m/S 665 mmHg 89%
04:00 +18°C° 0 mm 0 m/S 665 mmHg 89%
05:00 +18°C° 0 mm 0 m/S 665 mmHg 87%
06:00 +19°C° 0 mm 0 m/S 666 mmHg 85%
07:00 +19°C° 0 mm 0 m/S 666 mmHg 83%
08:00 +22°C° 0 mm 0 m/S 667 mmHg 73%
09:00 +26°C° 0 mm 1 m/S 668 mmHg 63%
10:00 +29°C° 0 mm 1 m/S 669 mmHg 54%
11:00 +30°C° 0.1 mm 1 m/S 669 mmHg 52%
12:00 +30°C° 0.1 mm 1 m/S 668 mmHg 50%
13:00 +31°C° 0.1 mm 1 m/S 668 mmHg 49%
14:00 +30°C° 0.1 mm 1 m/S 667 mmHg 52%
15:00 +30°C° 0.1 mm 1 m/S 666 mmHg 55%
16:00 +29°C° 0.1 mm 1 m/S 666 mmHg 59%
17:00 +27°C° 0.1 mm 1 m/S 666 mmHg 67%
18:00 +25°C° 0.1 mm 1 m/S 666 mmHg 76%
19:00 +23°C° 0.1 mm 1 m/S 666 mmHg 85%
20:00 +23°C° 0.1 mm 1 m/S 666 mmHg 85%
21:00 +22°C° 0.1 mm 1 m/S 666 mmHg 86%
22:00 +21°C° 0.1 mm 1 m/S 667 mmHg 86%
23:00 +21°C° 0 mm 1 m/S 666 mmHg 86%

9 August, Sonntag

Zeit Temperatur Niederschläge Wind Luftdruck Luftfeuchtigkeit
00:00 +21°C° 0 mm 1 m/S 666 mmHg 86%
01:00 +21°C° 0 mm 1 m/S 666 mmHg 85%
02:00 +20°C° 0 mm 1 m/S 666 mmHg 85%
03:00 +20°C° 0 mm 1 m/S 665 mmHg 84%
04:00 +18°C° 0 mm 0 m/S 665 mmHg 84%
05:00 +18°C° 0 mm 0 m/S 665 mmHg 82%
06:00 +19°C° 0 mm 0 m/S 666 mmHg 80%
07:00 +19°C° 0 mm 0 m/S 666 mmHg 79%
08:00 +22°C° 0 mm 0 m/S 667 mmHg 69%
09:00 +25°C° 0 mm 0 m/S 668 mmHg 59%
10:00 +30°C° 0 mm 1 m/S 669 mmHg 50%
11:00 +30°C° 0.1 mm 1 m/S 668 mmHg 50%
12:00 +30°C° 0.1 mm 1 m/S 668 mmHg 51%
13:00 +30°C° 0.1 mm 1 m/S 667 mmHg 52%
14:00 +29°C° 0.4 mm 1 m/S 667 mmHg 57%
15:00 +29°C° 0.4 mm 1 m/S 666 mmHg 62%
16:00 +28°C° 0.4 mm 2 m/S 665 mmHg 66%
17:00 +26°C° 0.2 mm 1 m/S 665 mmHg 74%
18:00 +24°C° 0.2 mm 1 m/S 665 mmHg 82%
19:00 +23°C° 0.2 mm 1 m/S 665 mmHg 90%
20:00 +22°C° 0.1 mm 1 m/S 665 mmHg 90%
21:00 +22°C° 0.1 mm 1 m/S 666 mmHg 90%
22:00 +21°C° 0.1 mm 1 m/S 666 mmHg 91%
23:00 +21°C° 0.1 mm 1 m/S 666 mmHg 91%
Mehr zeigen